[[{"header":{"parameterUnit":"m.s-1","parameterCategory":1,"la1":30.2991,"la2":30.254,"lo1":-89.0895,"lo2":-89.0444,"dx":0.0017,"dy":0.0017,"nx":28,"ny":28,"refTime":"2022-12-18T15:00:00:Z","depth":0,"parameterNumber":2,"parameterNumberName":"U-component_of_WINDS"},"data":[0,0,0,0,0,0,0,0,0,0,0,0,0,0,0,0,0,0,0,0,0,0,0,0,0,0,0,0,0,0,0,0,0,0,0,0,0,0,0,0,0,0,0,0,0,0,0,0,0,0,0,0,0,0,0,0,0,0,-1.1878,-1.1878,0,-1.1881,-1.1881,-1.1881,-1.1848,-1.1847,-1.1846,-1.1845,-1.185,-1.1851,-1.1852,0,0,0,0,0,0,0,0,0,0,0,0,0,-1.1843,-1.1844,-1.1878,-1.1878,-1.1878,-1.1881,-1.1881,-1.1881,-1.1848,-1.1847,-1.1846,-1.1845,-1.185,-1.1851,-1.1852,0,0,0,0,0,0,0,0,0,0,0,0,0,-1.1854,-1.1845,-1.1878,-1.1862,-1.186,-1.1881,-1.1881,-1.1881,-1.1849,-1.1847,-1.1846,-1.1845,-1.185,-1.1851,-1.1853,-1.1889,0,0,-1.1857,-1.1858,0,0,0,0,0,0,0,0,-1.1853,-1.1855,-1.1864,-1.1863,-1.1861,-1.1863,-1.1871,-1.1884,-1.1849,-1.1853,-1.1845,-1.1844,-1.1856,-1.1857,-1.186,-1.189,-1.189,-1.1857,-1.1858,-1.1859,-1.1859,0,0,0,0,0,0,0,-1.1853,-1.1855,-1.1879,-1.1864,-1.1863,-1.1855,-1.1855,-1.1873,-1.1862,-1.1853,-1.185,-1.1851,-1.1855,-1.1859,-1.186,-1.189,-1.1857,-1.1859,-1.1859,-1.186,-1.1949,-1.195,0,0,0,0,0,0,-1.1854,-1.1854,-1.1879,-1.1879,-1.1854,-1.1856,-1.1856,-1.1864,-1.1862,-1.186,-1.1852,-1.1849,-1.1857,-1.1859,-1.186,-1.1903,-1.1859,-1.186,-1.1861,-1.1948,-1.1949,-1.1951,0,0,0,0,0,0,-1.1853,-1.1856,-1.1879,-1.1866,-1.1868,-1.1859,-1.1867,-1.1865,-1.1869,-1.1862,-1.1859,-1.1859,-1.1856,-1.1858,-1.1882,-1.1903,-1.1861,-1.1862,-1.1946,-1.1948,-1.195,-1.1989,0,0,0,0,0,0,-1.1852,-1.1856,-1.187,-1.1867,-1.1869,-1.1901,-1.1868,-1.1866,-1.1871,-1.1868,-1.1867,-1.1866,-1.1855,-1.188,-1.1884,-1.1904,-1.1863,-1.1944,-1.1947,-1.195,-1.1986,-1.1993,-1.1998,0,0,0,0,0,-1.1851,-1.1882,-1.1871,-1.1874,-1.1886,-1.1902,-1.1904,-1.1891,-1.1873,-1.1887,-1.1882,-1.1866,-1.19,-1.1883,-1.1887,-1.1908,-1.1943,-1.1946,-1.1949,-1.1984,-1.1991,-1.1998,0,0,0,0,0,0,-1.1888,-1.1881,-1.1869,-1.1899,-1.1901,-1.1896,-1.1914,-1.1899,-1.1907,-1.1904,-1.1888,-1.1888,-1.1915,-1.1913,-1.1895,-1.1943,-1.1918,-1.1922,-1.1943,-1.195,-1.1956,-1.1956,-1.1865,0,0,0,0,0,-1.19,-1.1913,-1.1906,-1.1933,-1.1935,-1.1924,-1.193,-1.192,-1.1922,-1.1923,-1.192,-1.1923,-1.1934,-1.1942,-1.1952,-1.1986,-1.1985,-1.2002,-1.2008,-1.2013,-1.2017,-1.2034,-1.2042,-1.1962,-1.1962,-1.1962,0,0,-1.1924,-1.1922,-1.1931,-1.194,-1.1941,-1.1955,-1.1925,-1.1941,-1.1952,-1.1926,-1.1948,-1.1946,-1.1948,-1.1977,-1.1989,-1.1977,-1.2039,-1.2017,-1.2021,-1.2022,-1.2038,-1.2046,-1.2053,-1.1964,-1.1964,-1.1963,0,0,-1.1975,-1.1975,-1.1997,-1.1998,-1.1999,-1.1992,-1.1997,-1.1994,-1.1991,-1.2013,-1.1994,-1.2006,-1.2026,-1.2028,-1.2032,-1.2083,-1.2068,-1.2087,-1.2119,-1.2136,-1.2142,-1.2148,-1.2166,-1.2173,-1.2091,-1.2091,-1.2091,0,-1.2006,-1.2026,-1.2011,-1.2028,-1.2033,-1.2009,-1.2031,-1.2033,-1.2038,-1.2042,-1.2027,-1.2051,-1.2051,-1.208,-1.2092,-1.2096,-1.2102,-1.2087,-1.2142,-1.2148,-1.2153,-1.217,-1.2177,-1.2093,-1.2093,-1.2093,-1.2093,0,-1.2063,-1.2077,-1.2095,-1.2099,-1.2106,-1.2126,-1.2114,-1.2122,-1.2111,-1.2106,-1.2128,-1.2127,-1.2136,-1.2142,-1.2132,-1.2169,-1.2161,-1.2145,-1.212,-1.2163,-1.2179,-1.2185,-1.2097,-1.2096,-1.2095,-1.2095,0,0,-1.2139,-1.2133,-1.214,-1.2142,-1.2141,-1.2152,-1.217,-1.2179,-1.2187,-1.219,-1.2206,-1.2223,-1.2207,-1.2211,-1.2201,-1.2216,-1.2257,-1.2197,-1.2197,-1.2209,-1.2298,-1.2311,-1.2319,-1.2246,-1.2248,-1.2248,-1.2298,0,-1.2189,-1.2221,-1.2207,-1.224,-1.2253,-1.223,-1.2246,-1.2247,-1.2242,-1.2253,-1.2247,-1.2259,-1.2238,-1.224,-1.2254,-1.2249,-1.2275,-1.2245,-1.2261,-1.2262,-1.2262,-1.2327,-1.2341,-1.2388,-1.2304,-1.2305,-1.2306,0,-1.2252,-1.2258,-1.2292,-1.2288,-1.2293,-1.2308,-1.2314,-1.2324,-1.2325,-1.232,-1.2325,-1.231,-1.2329,-1.2303,-1.2328,-1.2308,-1.2314,-1.2312,-1.2314,-1.2315,-1.2287,-1.2331,-1.2403,-1.241,-1.2316,-1.2315,-1.2314,0,-1.2304,-1.232,-1.2343,-1.2345,-1.2341,-1.2352,-1.235,-1.235,-1.2355,-1.2361,-1.2365,-1.2372,-1.2377,-1.2383,-1.2372,-1.2354,-1.2399,-1.2372,-1.2395,-1.2396,-1.2406,-1.2406,-1.248,-1.2409,-1.2409,-1.2409,-1.2409,0,-1.2362,-1.2384,-1.2366,-1.238,-1.2404,-1.2388,-1.2412,-1.2408,-1.2407,-1.242,-1.2401,-1.2413,-1.2397,-1.2408,-1.2399,-1.2421,-1.2423,-1.242,-1.2418,-1.2422,-1.2423,-1.2426,-1.2423,-1.2411,-1.2411,-1.241,-1.241,0,-1.2425,-1.2414,-1.2437,-1.243,-1.2429,-1.2447,-1.2442,-1.2455,-1.2448,-1.2464,-1.2467,-1.2456,-1.2468,-1.2457,-1.2469,-1.2463,-1.2492,-1.2485,-1.2492,-1.249,-1.2514,-1.2512,-1.2594,-1.2604,-1.2526,-1.2527,-1.2527,0,-1.2463,-1.2479,-1.2474,-1.2481,-1.2481,-1.2493,-1.2498,-1.2483,-1.2489,-1.2491,-1.2504,-1.2514,-1.2521,-1.2541,-1.2534,-1.2543,-1.2536,-1.2564,-1.2537,-1.2541,-1.2537,-1.2536,-1.2538,-1.257,-1.2571,-1.2571,-1.2572,0,-1.2532,-1.2525,-1.2533,-1.254,-1.2547,-1.2551,-1.2554,-1.2561,-1.2545,-1.2554,-1.2565,-1.2571,-1.2582,-1.2592,-1.2599,-1.2598,-1.2583,-1.258,-1.2586,-1.2591,-1.2595,-1.2594,-1.2507,-1.2579,-1.2578,-1.2577,-1.2577,-1.2577,-1.2583,-1.2596,-1.2595,-1.2605,-1.2605,-1.2608,-1.262,-1.2614,-1.2623,-1.2631,-1.2621,-1.2635,-1.2635,-1.2642,-1.2643,-1.2654,-1.2642,-1.2651,-1.2653,-1.2655,-1.2659,-1.2593,-1.2655,-1.2655,-1.2655,-1.2654,-1.2654,0,-1.2651,-1.2649,-1.2658,-1.2662,-1.267,-1.2654,-1.2656,-1.2664,-1.2677,-1.2678,-1.2685,-1.2698,-1.2708,-1.2702,-1.271,-1.272,-1.2713,-1.2723,-1.2722,-1.2722,-1.2669,-1.2663,-1.2728,-1.2728,-1.2728,-1.2728,-1.2728,-1.2728,-1.2688,-1.2709,-1.2702,-1.2723,-1.2721,-1.2734,-1.2737,-1.274,-1.274,-1.2756,-1.2763,-1.2759,-1.2757,-1.2765,-1.2773,-1.2771,-1.2775,-1.2787,-1.2783,-1.2733,-1.2726,-1.2719,-1.2714,-1.2788,-1.2788,-1.2835,-1.2836,-1.2836]},{"header":{"parameterUnit":"m.s-1","parameterCategory":1,"la1":30.2991,"la2":30.254,"lo1":-89.0895,"lo2":-89.0444,"dx":0.0017,"dy":0.0017,"nx":28,"ny":28,"refTime":"2022-12-18T15:00:00:Z","depth":0,"parameterNumber":3,"parameterNumberName":"V-component_of_WINDS"},"data":[0,0,0,0,0,0,0,0,0,0,0,0,0,0,0,0,0,0,0,0,0,0,0,0,0,0,0,0,0,0,0,0,0,0,0,0,0,0,0,0,0,0,0,0,0,0,0,0,0,0,0,0,0,0,0,0,0,0,-4.7379,-4.738,0,-4.7432,-4.7432,-4.7433,-4.7402,-4.7401,-4.7399,-4.7398,-4.7448,-4.7451,-4.7453,0,0,0,0,0,0,0,0,0,0,0,0,0,-4.7248,-4.725,-4.7379,-4.738,-4.738,-4.7432,-4.7432,-4.7433,-4.7403,-4.7401,-4.7399,-4.7397,-4.7447,-4.745,-4.7453,0,0,0,0,0,0,0,0,0,0,0,0,0,-4.7303,-4.7251,-4.7379,-4.7371,-4.7371,-4.7431,-4.7432,-4.7433,-4.7403,-4.7401,-4.7398,-4.7396,-4.7446,-4.745,-4.7454,-4.7523,0,0,-4.7466,-4.7468,0,0,0,0,0,0,0,0,-4.73,-4.7308,-4.7372,-4.7372,-4.7372,-4.7408,-4.7404,-4.7463,-4.7403,-4.7391,-4.7398,-4.7395,-4.7436,-4.7441,-4.7456,-4.7526,-4.7528,-4.7467,-4.7469,-4.7471,-4.7472,0,0,0,0,0,0,0,-4.7296,-4.7305,-4.74,-4.7373,-4.7373,-4.7364,-4.7369,-4.7415,-4.7425,-4.7392,-4.739,-4.7396,-4.7436,-4.7452,-4.7457,-4.7529,-4.7467,-4.747,-4.7473,-4.7474,-4.7658,-4.7661,0,0,0,0,0,0,-4.7293,-4.7302,-4.7398,-4.7401,-4.733,-4.7368,-4.7374,-4.7399,-4.7425,-4.7426,-4.7398,-4.7395,-4.7446,-4.7452,-4.7458,-4.7541,-4.7471,-4.7475,-4.7477,-4.7656,-4.7659,-4.7662,0,0,0,0,0,0,-4.7291,-4.7302,-4.7396,-4.7351,-4.7363,-4.7373,-4.7401,-4.7401,-4.7417,-4.743,-4.7431,-4.7413,-4.7444,-4.7452,-4.7508,-4.7543,-4.7477,-4.748,-4.7653,-4.7657,-4.766,-4.7709,0,0,0,0,0,0,-4.7287,-4.7301,-4.7329,-4.7352,-4.7365,-4.7446,-4.7403,-4.7404,-4.7424,-4.742,-4.7444,-4.7446,-4.7443,-4.7502,-4.7512,-4.7547,-4.7483,-4.765,-4.7655,-4.7659,-4.7704,-4.7713,-4.7722,0,0,0,0,0,-4.7283,-4.7339,-4.733,-4.7342,-4.74,-4.7448,-4.7455,-4.7453,-4.7427,-4.7454,-4.7463,-4.7445,-4.7537,-4.7508,-4.7519,-4.7556,-4.7648,-4.7653,-4.7659,-4.77,-4.7712,-4.7721,0,0,0,0,0,0,-4.7318,-4.7342,-4.7333,-4.7399,-4.7422,-4.7443,-4.7477,-4.7465,-4.7494,-4.7489,-4.7483,-4.7489,-4.7547,-4.7556,-4.7523,-4.7624,-4.7588,-4.7596,-4.7616,-4.7627,-4.7636,-4.7632,-4.7487,0,0,0,0,0,-4.7334,-4.7372,-4.7391,-4.7447,-4.746,-4.7466,-4.7487,-4.7483,-4.7506,-4.7515,-4.7527,-4.7549,-4.7583,-4.7606,-4.7637,-4.7705,-4.7709,-4.7736,-4.7745,-4.7752,-4.7759,-4.7795,-4.7807,-4.768,-4.768,-4.768,0,0,-4.7366,-4.7384,-4.7409,-4.7455,-4.7472,-4.7511,-4.7475,-4.7517,-4.7545,-4.7521,-4.7575,-4.7584,-4.7608,-4.767,-4.7698,-4.768,-4.7795,-4.7759,-4.7765,-4.7768,-4.7802,-4.7814,-4.7825,-4.7683,-4.7683,-4.7682,0,0,-4.7446,-4.7464,-4.7513,-4.7532,-4.7559,-4.7563,-4.7575,-4.7598,-4.7604,-4.7658,-4.764,-4.7673,-4.7732,-4.775,-4.7767,-4.7854,-4.7838,-4.7864,-4.791,-4.7946,-4.7956,-4.7965,-4.7996,-4.8007,-4.7871,-4.7871,-4.7871,0,-4.7483,-4.7542,-4.7539,-4.7584,-4.7605,-4.7586,-4.7635,-4.7653,-4.7689,-4.7703,-4.7683,-4.7756,-4.7771,-4.7837,-4.7858,-4.7872,-4.7885,-4.7861,-4.7955,-4.7964,-4.7972,-4.8002,-4.8013,-4.7874,-4.7874,-4.7873,-4.7873,0,-4.7586,-4.7627,-4.7663,-4.77,-4.7725,-4.7771,-4.7775,-4.78,-4.7794,-4.78,-4.7855,-4.7872,-4.7908,-4.7923,-4.7917,-4.7988,-4.7976,-4.7956,-4.7919,-4.7987,-4.8015,-4.8026,-4.7878,-4.7877,-4.7876,-4.7875,0,0,-4.7688,-4.7724,-4.7738,-4.7754,-4.7783,-4.7815,-4.786,-4.7896,-4.7918,-4.7943,-4.798,-4.8031,-4.8012,-4.8031,-4.8027,-4.8058,-4.8126,-4.8034,-4.8034,-4.8051,-4.8206,-4.8221,-4.8234,-4.8116,-4.8118,-4.812,-4.8204,0,-4.777,-4.7851,-4.7851,-4.7925,-4.7963,-4.7946,-4.7986,-4.8007,-4.8014,-4.8046,-4.8053,-4.8089,-4.8062,-4.8073,-4.8104,-4.8112,-4.8157,-4.8105,-4.815,-4.8152,-4.8145,-4.8249,-4.8265,-4.8343,-4.8214,-4.8216,-4.8218,0,-4.7876,-4.7906,-4.7986,-4.801,-4.8025,-4.8061,-4.8094,-4.8125,-4.8149,-4.8152,-4.8174,-4.8165,-4.821,-4.8172,-4.8234,-4.8199,-4.8217,-4.8224,-4.8227,-4.8231,-4.8189,-4.8256,-4.8368,-4.838,-4.8235,-4.8233,-4.8232,0,-4.7943,-4.8004,-4.8059,-4.8074,-4.8103,-4.8129,-4.8142,-4.8164,-4.8185,-4.8214,-4.8228,-4.826,-4.8278,-4.8303,-4.8303,-4.8276,-4.8366,-4.8328,-4.8368,-4.8369,-4.8388,-4.8387,-4.8505,-4.84,-4.8399,-4.8399,-4.8399,0,-4.8034,-4.8083,-4.809,-4.8124,-4.8178,-4.8177,-4.823,-4.824,-4.826,-4.8295,-4.8281,-4.8314,-4.8312,-4.8344,-4.8344,-4.8395,-4.8403,-4.8406,-4.8406,-4.8408,-4.8407,-4.8419,-4.8414,-4.8402,-4.8402,-4.8401,-4.8401,0,-4.8119,-4.8126,-4.8185,-4.8208,-4.8215,-4.8254,-4.8273,-4.8305,-4.8311,-4.8355,-4.8366,-4.8374,-4.8412,-4.8415,-4.8458,-4.8458,-4.852,-4.8513,-4.8513,-4.8512,-4.8552,-4.8548,-4.8682,-4.87,-4.8583,-4.8584,-4.8585,0,-4.8177,-4.8214,-4.8242,-4.8266,-4.8281,-4.8318,-4.8341,-4.834,-4.8364,-4.8394,-4.8422,-4.8459,-4.8489,-4.855,-4.856,-4.8593,-4.8587,-4.8631,-4.8591,-4.8592,-4.8587,-4.8585,-4.8589,-4.8639,-4.864,-4.8641,-4.8642,0,-4.8279,-4.8281,-4.8315,-4.835,-4.8378,-4.8406,-4.8431,-4.8451,-4.8453,-4.848,-4.852,-4.8543,-4.8588,-4.8625,-4.8657,-4.8669,-4.8656,-4.8655,-4.8666,-4.8669,-4.8667,-4.8669,-4.8534,-4.8652,-4.8651,-4.865,-4.865,-4.8649,-4.8352,-4.8385,-4.841,-4.8448,-4.8468,-4.8493,-4.8524,-4.8534,-4.8568,-4.8606,-4.8603,-4.8647,-4.8669,-4.8711,-4.8726,-4.8759,-4.8744,-4.876,-4.8764,-4.8768,-4.8772,-4.8662,-4.8765,-4.8765,-4.8764,-4.8764,-4.8764,0,-4.8453,-4.8469,-4.8505,-4.8542,-4.8572,-4.8559,-4.8586,-4.8612,-4.8651,-4.8674,-4.8704,-4.8749,-4.8785,-4.8798,-4.8832,-4.8856,-4.8851,-4.8865,-4.8863,-4.8866,-4.8784,-4.8771,-4.8869,-4.8869,-4.8869,-4.8869,-4.8869,-4.8869,-4.851,-4.8565,-4.857,-4.8634,-4.8649,-4.8693,-4.871,-4.8732,-4.8751,-4.8802,-4.8833,-4.8841,-4.886,-4.8895,-4.8927,-4.893,-4.8943,-4.896,-4.896,-4.8883,-4.8872,-4.8862,-4.885,-4.8963,-4.8963,-4.904,-4.904,-4.9041]}]]